,,,PA_Meas_PMT16A,,PR_Meas_QMR101_102,,RH_Meas_QMH101,,SR_Meas_QMS101,,TA_Meas_QMH101,,GenWind,,GenWind,
date,time,status,PA,status,PR,status,RH,status,SR,status,TA,status,DirAvg,status,SpdAvg,
2011-06-20, 00:00:04,VALID,1004.4,VALID,0,INVALID,163.739,VALID,0,VALID,24.498,VALID,358,VALID,0,
2011-06-20, 00:01:04,VALID,1004.4,VALID,0,INVALID,163.701,VALID,0.100563,VALID,24.5388,VALID,358,VALID,0,
2011-06-20, 00:02:04,VALID,1004.38,VALID,0,INVALID,163.723,VALID,0,VALID,24.5193,VALID,358,VALID,0,
2011-06-20, 00:03:04,VALID,1004.4,VALID,0,INVALID,163.716,VALID,0,VALID,24.5193,VALID,358,VALID,0,
2011-06-20, 00:04:04,VALID,1004.36,VALID,0,INVALID,163.685,VALID,0,VALID,24.4998,VALID,358,VALID,0,
2011-06-20, 00:05:04,VALID,1004.36,VALID,0,INVALID,163.731,VALID,0.100563,VALID,24.459,VALID,358,VALID,0,
2011-06-20, 00:06:04,VALID,1004.36,VALID,0,INVALID,163.746,VALID,0,VALID,24.4804,VALID,358,VALID,0,
2011-06-20, 00:07:04,VALID,1004.37,VALID,0,INVALID,163.716,VALID,0.100563,VALID,24.4396,VALID,110,VALID,0,
2011-06-20, 00:08:04,VALID,1004.42,VALID,0,INVALID,163.731,VALID,0,VALID,24.4804,VALID,153,VALID,0,
2011-06-20, 00:09:04,VALID,1004.4,VALID,0,INVALID,163.723,VALID,0.100563,VALID,24.5369,VALID,147,VALID,0,
2011-06-20, 00:10:04,VALID,1004.37,VALID,0,INVALID,163.716,VALID,0,VALID,24.6732,VALID,108,VALID,0,
2011-06-20, 00:11:04,VALID,1004.33,VALID,0,INVALID,163.693,VALID,0,VALID,24.7529,VALID,126,VALID,0,
2011-06-20, 00:12:04,VALID,1004.35,VALID,0,INVALID,163.693,VALID,0.100563,VALID,24.8697,VALID,122,VALID,0,
2011-06-20, 00:13:04,VALID,1004.3,VALID,0,INVALID,163.701,VALID,0.100563,VALID,24.9847,VALID,114,VALID,0,
2011-06-20, 00:14:04,VALID,1004.26,VALID,0,INVALID,163.678,VALID,0.100563,VALID,25.1034,VALID,109,VALID,0,
2011-06-20, 00:15:04,VALID,1004.25,VALID,0,INVALID,163.655,VALID,0.100563,VALID,25.1404,VALID,94,VALID,0,
2011-06-20, 00:16:04,VALID,1004.24,VALID,0,INVALID,163.662,VALID,0.100563,VALID,25.1794,VALID,96,VALID,0,
2011-06-20, 00:17:04,VALID,1004.22,VALID,0,INVALID,163.662,VALID,0,VALID,25.1794,VALID,88,VALID,0,
2011-06-20, 00:18:04,VALID,1004.23,VALID,0,INVALID,163.685,VALID,0,VALID,25.2007,VALID,110,VALID,0,
2011-06-20, 00:19:04,VALID,1004.19,VALID,0,INVALID,163.662,VALID,0,VALID,25.2007,VALID,126,VALID,0,
2011-06-20, 00:20:04,VALID,1004.17,VALID,0,INVALID,163.647,VALID,0,VALID,25.2007,VALID,114,VALID,0,
2011-06-20, 00:21:04,VALID,1004.15,VALID,0,INVALID,163.647,VALID,0.100563,VALID,25.1404,VALID,99,VALID,0,
2011-06-20, 00:22:04,VALID,1004.13,VALID,0,INVALID,163.655,VALID,0.100563,VALID,25.2007,VALID,122,VALID,0,
2011-06-20, 00:23:04,VALID,1004.16,VALID,0,INVALID,163.67,VALID,0,VALID,25.1988,VALID,115,VALID,0,
2011-06-20, 00:24:04,VALID,1004.11,VALID,0,INVALID,163.67,VALID,0,VALID,25.2397,VALID,114,VALID,0,
2011-06-20, 00:25:04,VALID,1004.14,VALID,0,INVALID,163.639,VALID,0,VALID,25.2572,VALID,99,VALID,0,
2011-06-20, 00:26:04,VALID,1004.16,VALID,0,INVALID,163.662,VALID,0.100563,VALID,25.2572,VALID,111,VALID,0,
2011-06-20, 00:27:04,VALID,1004.17,VALID,0,INVALID,163.624,VALID,0.100563,VALID,25.2962,VALID,96,VALID,0,
2011-06-20, 00:28:04,VALID,1004.15,VALID,0,INVALID,163.655,VALID,0.100563,VALID,25.2572,VALID,71,VALID,0,
2011-06-20, 00:29:04,VALID,1004.12,VALID,0,INVALID,163.655,VALID,0,VALID,25.2397,VALID,97,VALID,0,
2011-06-20, 00:30:04,VALID,1004.12,VALID,0,INVALID,163.67,VALID,0,VALID,25.2202,VALID,105,VALID,0,
2011-06-20, 00:31:04,VALID,1004.08,VALID,0,INVALID,163.662,VALID,0.100563,VALID,25.2202,VALID,90,VALID,0,
2011-06-20, 00:32:04,VALID,1004.08,VALID,0,INVALID,163.685,VALID,0.100563,VALID,25.2202,VALID,95,VALID,0,
2011-06-20, 00:33:04,VALID,1004.07,VALID,0,INVALID,163.67,VALID,0,VALID,25.1813,VALID,91,VALID,0,
2011-06-20, 00:34:04,VALID,1004.07,VALID,0,INVALID,163.67,VALID,0,VALID,25.1404,VALID,118,VALID,0,
2011-06-20, 00:35:04,VALID,1004.06,VALID,0,INVALID,163.662,VALID,0.100563,VALID,25.1229,VALID,80,VALID,0,
2011-06-20, 00:36:04,VALID,1004.05,VALID,0,INVALID,163.693,VALID,0,VALID,25.0839,VALID,110,VALID,0,
2011-06-20, 00:37:04,VALID,1004.03,VALID,0,INVALID,163.67,VALID,0.100563,VALID,25.0236,VALID,110,VALID,0,
2011-06-20, 00:38:04,VALID,1004.01,VALID,0,INVALID,163.639,VALID,0.100563,VALID,25.0255,VALID,112,VALID,0,
2011-06-20, 00:39:04,VALID,1003.98,VALID,0,INVALID,163.662,VALID,0.100563,VALID,25.006,VALID,86,VALID,0,
2011-06-20, 00:40:04,VALID,1003.99,VALID,0,INVALID,163.678,VALID,0.100563,VALID,24.9671,VALID,103,VALID,0,
2011-06-20, 00:41:04,VALID,1003.97,VALID,0,INVALID,163.67,VALID,0,VALID,24.9671,VALID,105,VALID,0,
2011-06-20, 00:42:04,VALID,1003.95,VALID,0,INVALID,163.678,VALID,0,VALID,24.9671,VALID,105,VALID,0,
2011-06-20, 00:43:04,VALID,1003.92,VALID,0,INVALID,163.693,VALID,0,VALID,24.9476,VALID,105,VALID,0,
2011-06-20, 00:44:04,VALID,1003.92,VALID,0,INVALID,163.662,VALID,0,VALID,24.9087,VALID,105,VALID,0,
2011-06-20, 00:45:04,VALID,1003.9,VALID,0,INVALID,163.723,VALID,0,VALID,24.8892,VALID,105,VALID,0,
2011-06-20, 00:46:04,VALID,1003.88,VALID,0,INVALID,163.67,VALID,0,VALID,24.8697,VALID,105,VALID,0,
2011-06-20, 00:47:04,VALID,1003.85,VALID,0,INVALID,163.708,VALID,0.100563,VALID,24.8503,VALID,105,VALID,0,
2011-06-20, 00:48:04,VALID,1003.85,VALID,0,INVALID,163.701,VALID,0,VALID,24.8308,VALID,105,VALID,0,
2011-06-20, 00:49:04,VALID,1003.87,VALID,0,INVALID,163.693,VALID,0,VALID,24.79,VALID,105,VALID,0,
2011-06-20, 00:50:04,VALID,1003.83,VALID,0,INVALID,163.693,VALID,0.100563,VALID,24.7724,VALID,105,VALID,0,
2011-06-20, 00:51:04,VALID,1003.83,VALID,0,INVALID,163.716,VALID,0.100563,VALID,24.7724,VALID,105,VALID,0,
2011-06-20, 00:52:04,VALID,1003.83,VALID,0,INVALID,163.701,VALID,0.100563,VALID,24.7335,VALID,105,VALID,0,
2011-06-20, 00:53:04,VALID,1003.82,VALID,0,INVALID,163.678,VALID,0,VALID,24.675,VALID,105,VALID,0,
2011-06-20, 00:54:04,VALID,1003.8,VALID,0,INVALID,163.693,VALID,0,VALID,24.6342,VALID,59,VALID,0,
2011-06-20, 00:55:04,VALID,1003.77,VALID,0,INVALID,163.716,VALID,0,VALID,24.6361,VALID,55,VALID,0,
2011-06-20, 00:56:04,VALID,1003.77,VALID,0,INVALID,163.678,VALID,0,VALID,24.6166,VALID,25,VALID,0,
2011-06-20, 00:57:04,VALID,1003.77,VALID,0,INVALID,163.723,VALID,0,VALID,24.6185,VALID,24,VALID,0,
2011-06-20, 00:58:04,VALID,1003.79,VALID,0,INVALID,163.731,VALID,0.100563,VALID,24.5777,VALID,24,VALID,0,
2011-06-20, 00:59:04,VALID,1003.77,VALID,0,INVALID,163.723,VALID,0,VALID,24.5388,VALID,24,VALID,0,
2011-06-20, 01:00:04,VALID,1003.78,VALID,0,INVALID,163.716,VALID,0,VALID,24.4804,VALID,24,VALID,0,
2011-06-20, 01:01:04,VALID,1003.74,VALID,0,INVALID,163.739,VALID,0,VALID,24.422,VALID,24,VALID,0,
2011-06-20, 01:02:04,VALID,1003.71,VALID,0,INVALID,163.723,VALID,0,VALID,24.4025,VALID,24,VALID,0,
2011-06-20, 01:03:04,VALID,1003.68,VALID,0,INVALID,163.739,VALID,0,VALID,24.383,VALID,24,VALID,0,
2011-06-20, 01:04:04,VALID,1003.68,VALID,0,INVALID,163.739,VALID,0,VALID,24.3441,VALID,24,VALID,0,
2011-06-20, 01:05:04,VALID,1003.69,VALID,0,INVALID,163.746,VALID,0,VALID,24.3052,VALID,24,VALID,0,
2011-06-20, 01:06:04,VALID,1003.69,VALID,0,INVALID,163.731,VALID,0,VALID,24.2875,VALID,24,VALID,0,
2011-06-20, 01:07:04,VALID,1003.66,VALID,0,INVALID,163.769,VALID,0,VALID,24.2273,VALID,24,VALID,0,
2011-06-20, 01:08:04,VALID,1003.67,VALID,0,INVALID,163.746,VALID,0,VALID,24.1884,VALID,24,VALID,0,
2011-06-20, 01:09:04,VALID,1003.64,VALID,0,INVALID,163.723,VALID,0,VALID,24.1494,VALID,24,VALID,0,
2011-06-20, 01:10:04,VALID,1003.67,VALID,0,INVALID,163.739,VALID,0,VALID,24.1318,VALID,24,VALID,0,
2011-06-20, 01:11:04,VALID,1003.68,VALID,0,INVALID,163.754,VALID,0.100563,VALID,24.1105,VALID,24,VALID,0,
2011-06-20, 01:12:04,VALID,1003.67,VALID,0,INVALID,163.731,VALID,0.100563,VALID,24.1105,VALID,24,VALID,0,
2011-06-20, 01:13:04,VALID,1003.68,VALID,0,INVALID,163.746,VALID,0.100563,VALID,24.0716,VALID,24,VALID,0,
2011-06-20, 01:14:04,VALID,1003.69,VALID,0,INVALID,163.739,VALID,0,VALID,24.0697,VALID,24,VALID,0,
2011-06-20, 01:15:04,VALID,1003.7,VALID,0,INVALID,163.746,VALID,0,VALID,24.0716,VALID,24,VALID,0,
2011-06-20, 01:16:04,VALID,1003.69,VALID,0,INVALID,163.739,VALID,0.100563,VALID,24.0521,VALID,24,VALID,0,
2011-06-20, 01:17:04,VALID,1003.69,VALID,0,INVALID,163.762,VALID,0,VALID,24.0345,VALID,24,VALID,0,
2011-06-20, 01:18:04,VALID,1003.69,VALID,0,INVALID,163.739,VALID,0,VALID,24.0132,VALID,23,VALID,0,
2011-06-20, 01:19:04,VALID,1003.66,VALID,0,INVALID,163.731,VALID,0,VALID,24.0132,VALID,16,VALID,0,
2011-06-20, 01:20:04,VALID,1003.68,VALID,0,INVALID,163.731,VALID,0,VALID,24.0132,VALID,5,VALID,0,
2011-06-20, 01:21:04,VALID,1003.71,VALID,0,INVALID,163.746,VALID,0.100563,VALID,24.0326,VALID,350,VALID,0,
2011-06-20, 01:22:04,VALID,1003.72,VALID,0,INVALID,163.739,VALID,0.100563,VALID,24.0308,VALID,348,VALID,0,
2011-06-20, 01:23:04,VALID,1003.71,VALID,0,INVALID,163.746,VALID,0,VALID,24.0114,VALID,358,VALID,0,
2011-06-20, 01:24:04,VALID,1003.72,VALID,0,INVALID,163.762,VALID,0.100563,VALID,23.9919,VALID,1,VALID,0,
2011-06-20, 01:25:04,VALID,1003.74,VALID,0,INVALID,163.746,VALID,0.100563,VALID,23.9937,VALID,360,VALID,0,
2011-06-20, 01:26:04,VALID,1003.72,VALID,0,INVALID,163.762,VALID,0.100563,VALID,23.9742,VALID,360,VALID,0,
2011-06-20, 01:27:04,VALID,1003.72,VALID,0,INVALID,163.754,VALID,0.100563,VALID,23.914,VALID,360,VALID,0,
2011-06-20, 01:28:04,VALID,1003.71,VALID,0,INVALID,163.762,VALID,0.100563,VALID,23.914,VALID,360,VALID,0,
2011-06-20, 01:29:04,VALID,1003.69,VALID,0,INVALID,163.762,VALID,0.100563,VALID,23.9353,VALID,360,VALID,0,
2011-06-20, 01:30:04,VALID,1003.69,VALID,0,INVALID,163.769,VALID,0.100563,VALID,23.914,VALID,360,VALID,0,
2011-06-20, 01:31:04,VALID,1003.66,VALID,0,INVALID,163.746,VALID,0,VALID,23.8964,VALID,360,VALID,0,
2011-06-20, 01:32:04,VALID,1003.67,VALID,0,INVALID,163.769,VALID,0.100563,VALID,23.8751,VALID,360,VALID,0,
2011-06-20, 01:33:04,VALID,1003.63,VALID,0,INVALID,163.762,VALID,0.100563,VALID,23.8769,VALID,360,VALID,0,
2011-06-20, 01:34:04,VALID,1003.6,VALID,0,INVALID,163.762,VALID,0.100563,VALID,23.8575,VALID,360,VALID,0,
2011-06-20, 01:35:04,VALID,1003.63,VALID,0,INVALID,163.762,VALID,0.100563,VALID,23.8575,VALID,360,VALID,0,
2011-06-20, 01:36:04,VALID,1003.63,VALID,0,INVALID,163.746,VALID,0,VALID,23.8185,VALID,360,VALID,0,
2011-06-20, 01:37:04,VALID,1003.61,VALID,0,INVALID,163.762,VALID,0.100563,VALID,23.7991,VALID,360,VALID,0,
2011-06-20, 01:38:04,VALID,1003.61,VALID,0,INVALID,163.769,VALID,0,VALID,23.7991,VALID,360,VALID,0,
2011-06-20, 01:39:04,VALID,1003.59,VALID,0,INVALID,163.792,VALID,0,VALID,23.7796,VALID,360,VALID,0,
2011-06-20, 01:40:04,VALID,1003.54,VALID,0,INVALID,163.777,VALID,0.100563,VALID,23.7796,VALID,360,VALID,0,
2011-06-20, 01:41:04,VALID,1003.51,VALID,0,INVALID,163.792,VALID,0.100563,VALID,23.7601,VALID,360,VALID,0,
2011-06-20, 01:42:04,VALID,1003.52,VALID,0,INVALID,163.784,VALID,0,VALID,23.7389,VALID,360,VALID,0,
2011-06-20, 01:43:04,VALID,1003.52,VALID,0,INVALID,163.792,VALID,0,VALID,23.7407,VALID,360,VALID,0,
2011-06-20, 01:44:04,VALID,1003.5,VALID,0,INVALID,163.792,VALID,0.100563,VALID,23.7407,VALID,360,VALID,0,
2011-06-20, 01:45:04,VALID,1003.51,VALID,0,INVALID,163.777,VALID,0.100563,VALID,23.7194,VALID,360,VALID,0,
2011-06-20, 01:46:04,VALID,1003.55,VALID,0,INVALID,163.769,VALID,0.100563,VALID,23.7,VALID,360,VALID,0,
2011-06-20, 01:47:04,VALID,1003.54,VALID,0,INVALID,163.8,VALID,0.100563,VALID,23.7407,VALID,360,VALID,0,
2011-06-20, 01:48:04,VALID,1003.52,VALID,0,INVALID,163.792,VALID,0.100563,VALID,23.7,VALID,360,VALID,0,
2011-06-20, 01:49:04,VALID,1003.53,VALID,0,INVALID,163.754,VALID,0.100563,VALID,23.7407,VALID,360,VALID,0,
2011-06-20, 01:50:04,VALID,1003.53,VALID,0,INVALID,163.8,VALID,0.100563,VALID,23.7212,VALID,360,VALID,0,
2011-06-20, 01:51:04,VALID,1003.53,VALID,0,INVALID,163.769,VALID,0.100563,VALID,23.7,VALID,360,VALID,0,
2011-06-20, 01:52:04,VALID,1003.53,VALID,0,INVALID,163.754,VALID,0.100563,VALID,23.7,VALID,360,VALID,0,
2011-06-20, 01:53:04,VALID,1003.51,VALID,0,INVALID,163.784,VALID,0.100563,VALID,23.7212,VALID,360,VALID,0,
2011-06-20, 01:54:04,VALID,1003.53,VALID,0,INVALID,163.746,VALID,0.100563,VALID,23.7212,VALID,352,VALID,0,
2011-06-20, 01:55:04,VALID,1003.5,VALID,0,INVALID,163.792,VALID,0.100563,VALID,23.7194,VALID,349,VALID,0,
2011-06-20, 01:56:04,VALID,1003.48,VALID,0,INVALID,163.769,VALID,0.100563,VALID,23.7194,VALID,349,VALID,0,
2011-06-20, 01:57:04,VALID,1003.52,VALID,0,INVALID,163.762,VALID,0.100563,VALID,23.7407,VALID,349,VALID,0,
2011-06-20, 01:58:04,VALID,1003.48,VALID,0,INVALID,163.762,VALID,0.100563,VALID,23.7389,VALID,349,VALID,0,
2011-06-20, 01:59:04,VALID,1003.47,VALID,0,INVALID,163.762,VALID,0.100563,VALID,23.7389,VALID,349,VALID,0,
2011-06-20, 02:00:04,VALID,1003.45,VALID,0,INVALID,163.754,VALID,0,VALID,23.7814,VALID,349,VALID,0,
2011-06-20, 02:01:04,VALID,1003.45,VALID,0,INVALID,163.777,VALID,0,VALID,23.7601,VALID,2,VALID,0,
2011-06-20, 02:02:04,VALID,1003.43,VALID,0,INVALID,163.784,VALID,0,VALID,23.7796,VALID,2,VALID,0,
2011-06-20, 02:03:04,VALID,1003.44,VALID,0,INVALID,163.762,VALID,0,VALID,23.7796,VALID,2,VALID,0,
2011-06-20, 02:04:04,VALID,1003.46,VALID,0,INVALID,163.754,VALID,0,VALID,23.7796,VALID,2,VALID,0,
2011-06-20, 02:05:04,VALID,1003.47,VALID,0,INVALID,163.777,VALID,0,VALID,23.7796,VALID,2,VALID,0,
2011-06-20, 02:06:04,VALID,1003.47,VALID,0,INVALID,163.769,VALID,0,VALID,23.7796,VALID,2,VALID,0,
2011-06-20, 02:07:04,VALID,1003.46,VALID,0,INVALID,163.762,VALID,0,VALID,23.7796,VALID,2,VALID,0,
2011-06-20, 02:08:04,VALID,1003.46,VALID,0,INVALID,163.777,VALID,0,VALID,23.7991,VALID,2,VALID,0,
2011-06-20, 02:09:04,VALID,1003.45,VALID,0,INVALID,163.746,VALID,0,VALID,23.8398,VALID,2,VALID,0,
2011-06-20, 02:10:04,VALID,1003.4,VALID,0,INVALID,163.784,VALID,0,VALID,23.8185,VALID,2,VALID,0,
2011-06-20, 02:11:04,VALID,1003.41,VALID,0,INVALID,163.762,VALID,0,VALID,23.838,VALID,2,VALID,0,
2011-06-20, 02:12:04,VALID,1003.39,VALID,0,INVALID,163.762,VALID,0,VALID,23.838,VALID,2,VALID,0,
2011-06-20, 02:13:04,VALID,1003.37,VALID,0,INVALID,163.739,VALID,0,VALID,23.8593,VALID,2,VALID,0,
2011-06-20, 02:14:04,VALID,1003.33,VALID,0,INVALID,163.746,VALID,0,VALID,23.8575,VALID,2,VALID,0,
2011-06-20, 02:15:04,VALID,1003.36,VALID,0,INVALID,163.784,VALID,0,VALID,23.8575,VALID,2,VALID,0,
2011-06-20, 02:16:04,VALID,1003.36,VALID,0,INVALID,163.762,VALID,0,VALID,23.8787,VALID,2,VALID,0,
2011-06-20, 02:17:04,VALID,1003.38,VALID,0,INVALID,163.754,VALID,0,VALID,23.8575,VALID,2,VALID,0,
2011-06-20, 02:18:04,VALID,1003.4,VALID,0,INVALID,163.746,VALID,0,VALID,23.8787,VALID,2,VALID,0,
2011-06-20, 02:19:04,VALID,1003.42,VALID,0,INVALID,163.746,VALID,0,VALID,23.8787,VALID,2,VALID,0,
2011-06-20, 02:20:04,VALID,1003.41,VALID,0,INVALID,163.769,VALID,0,VALID,23.8575,VALID,2,VALID,0,
2011-06-20, 02:21:04,VALID,1003.41,VALID,0,INVALID,163.746,VALID,0,VALID,23.8769,VALID,2,VALID,0,
2011-06-20, 02:22:04,VALID,1003.4,VALID,0,INVALID,163.754,VALID,0,VALID,23.8575,VALID,2,VALID,0,
2011-06-20, 02:23:04,VALID,1003.38,VALID,0,INVALID,163.784,VALID,0,VALID,23.8964,VALID,2,VALID,0,
2011-06-20, 02:24:04,VALID,1003.37,VALID,0,INVALID,163.784,VALID,0,VALID,23.9177,VALID,2,VALID,0,
2011-06-20, 02:25:04,VALID,1003.38,VALID,0,INVALID,163.784,VALID,0,VALID,23.8751,VALID,2,VALID,0,
2011-06-20, 02:26:04,VALID,1003.34,VALID,0,INVALID,163.754,VALID,0,VALID,23.9177,VALID,2,VALID,0,
2011-06-20, 02:27:04,VALID,1003.3,VALID,0,INVALID,163.739,VALID,0,VALID,23.8964,VALID,2,VALID,0,
2011-06-20, 02:28:04,VALID,1003.29,VALID,0,INVALID,163.777,VALID,0,VALID,23.9371,VALID,2,VALID,0,
2011-06-20, 02:29:04,VALID,1003.29,VALID,0,INVALID,163.769,VALID,0,VALID,23.9353,VALID,2,VALID,0,
2011-06-20, 02:30:04,VALID,1003.29,VALID,0,INVALID,163.762,VALID,0.100563,VALID,23.9353,VALID,2,VALID,0,
2011-06-20, 02:31:04,VALID,1003.28,VALID,0,INVALID,163.746,VALID,0,VALID,23.9353,VALID,2,VALID,0,
2011-06-20, 02:32:04,VALID,1003.25,VALID,0,INVALID,163.777,VALID,0.100563,VALID,23.9159,VALID,2,VALID,0,
2011-06-20, 02:33:04,VALID,1003.22,VALID,0,INVALID,163.746,VALID,0.100563,VALID,23.8946,VALID,36,VALID,0,
2011-06-20, 02:34:04,VALID,1003.21,VALID,0,INVALID,163.731,VALID,0.100563,VALID,23.8751,VALID,36,VALID,0,
2011-06-20, 02:35:04,VALID,1003.19,VALID,0,INVALID,163.739,VALID,0,VALID,23.8769,VALID,36,VALID,0,
2011-06-20, 02:36:04,VALID,1003.17,VALID,0,INVALID,163.784,VALID,0.100563,VALID,23.8556,VALID,36,VALID,0,
2011-06-20, 02:37:04,VALID,1003.16,VALID,0,INVALID,163.762,VALID,0.100563,VALID,23.8167,VALID,36,VALID,0,
2011-06-20, 02:38:04,VALID,1003.16,VALID,0,INVALID,163.731,VALID,0.100563,VALID,23.8167,VALID,36,VALID,0,
2011-06-20, 02:39:04,VALID,1003.13,VALID,0,INVALID,163.746,VALID,0.100563,VALID,23.838,VALID,36,VALID,0,
2011-06-20, 02:40:04,VALID,1003.15,VALID,0,INVALID,163.784,VALID,0,VALID,23.8167,VALID,36,VALID,0,
2011-06-20, 02:41:04,VALID,1003.13,VALID,0,INVALID,163.769,VALID,0.100563,VALID,23.8167,VALID,36,VALID,0,
2011-06-20, 02:42:04,VALID,1003.16,VALID,0,INVALID,163.754,VALID,0.100563,VALID,23.8362,VALID,36,VALID,0,
2011-06-20, 02:43:04,VALID,1003.17,VALID,0,INVALID,163.777,VALID,0.100563,VALID,23.8575,VALID,36,VALID,0,
2011-06-20, 02:44:04,VALID,1003.18,VALID,0,INVALID,163.731,VALID,0,VALID,23.8362,VALID,36,VALID,0,
2011-06-20, 02:45:04,VALID,1003.21,VALID,0,INVALID,163.754,VALID,0.100563,VALID,23.8575,VALID,36,VALID,0,
2011-06-20, 02:46:04,VALID,1003.24,VALID,0,INVALID,163.762,VALID,0,VALID,23.8575,VALID,36,VALID,0,
2011-06-20, 02:47:04,VALID,1003.25,VALID,0,INVALID,163.746,VALID,0.100563,VALID,23.8362,VALID,36,VALID,0,
2011-06-20, 02:48:04,VALID,1003.24,VALID,0,INVALID,163.762,VALID,0,VALID,23.8769,VALID,36,VALID,0,
2011-06-20, 02:49:04,VALID,1003.24,VALID,0,INVALID,163.731,VALID,0.100563,VALID,23.8556,VALID,36,VALID,0,
2011-06-20, 02:50:04,VALID,1003.24,VALID,0,INVALID,163.746,VALID,0,VALID,23.8769,VALID,36,VALID,0,
2011-06-20, 02:51:04,VALID,1003.25,VALID,0,INVALID,163.769,VALID,0,VALID,23.8575,VALID,36,VALID,0,
2011-06-20, 02:52:04,VALID,1003.22,VALID,0,INVALID,163.754,VALID,0,VALID,23.8575,VALID,36,VALID,0,
2011-06-20, 02:53:04,VALID,1003.2,VALID,0,INVALID,163.762,VALID,0.100563,VALID,23.8575,VALID,36,VALID,0,
2011-06-20, 02:54:04,VALID,1003.22,VALID,0,INVALID,163.762,VALID,0.100563,VALID,23.8556,VALID,36,VALID,0,
2011-06-20, 02:55:04,VALID,1003.23,VALID,0,INVALID,163.746,VALID,0.100563,VALID,23.8556,VALID,36,VALID,0,
2011-06-20, 02:56:04,VALID,1003.19,VALID,0,INVALID,163.762,VALID,0,VALID,23.8769,VALID,36,VALID,0,
2011-06-20, 02:57:04,VALID,1003.19,VALID,0,INVALID,163.769,VALID,0.100563,VALID,23.8556,VALID,36,VALID,0,
2011-06-20, 02:58:04,VALID,1003.17,VALID,0,INVALID,163.769,VALID,0.100563,VALID,23.8769,VALID,36,VALID,0,
2011-06-20, 02:59:04,VALID,1003.14,VALID,0,INVALID,163.777,VALID,0,VALID,23.8964,VALID,36,VALID,0,
2011-06-20, 03:00:04,VALID,1003.09,VALID,0,INVALID,163.746,VALID,0,VALID,23.8769,VALID,36,VALID,0,
2011-06-20, 03:01:04,VALID,1003.07,VALID,0,INVALID,163.739,VALID,0,VALID,23.9177,VALID,36,VALID,0,
2011-06-20, 03:02:04,VALID,1003.03,VALID,0,INVALID,163.739,VALID,0,VALID,23.8964,VALID,36,VALID,0,
2011-06-20, 03:03:04,VALID,1003.01,VALID,0,INVALID,163.777,VALID,0,VALID,23.9371,VALID,36,VALID,0,
2011-06-20, 03:04:04,VALID,1002.93,VALID,0,INVALID,163.746,VALID,0,VALID,23.9566,VALID,36,VALID,0,
2011-06-20, 03:05:04,VALID,1002.91,VALID,0,INVALID,163.762,VALID,0,VALID,23.914,VALID,36,VALID,0,
2011-06-20, 03:06:04,VALID,1002.88,VALID,0,INVALID,163.739,VALID,0,VALID,23.9566,VALID,36,VALID,0,
2011-06-20, 03:07:04,VALID,1002.87,VALID,0,INVALID,163.754,VALID,0,VALID,23.9159,VALID,36,VALID,0,
2011-06-20, 03:08:04,VALID,1002.87,VALID,0,INVALID,163.723,VALID,0,VALID,23.9566,VALID,36,VALID,0,
2011-06-20, 03:09:04,VALID,1002.89,VALID,0,INVALID,163.754,VALID,0,VALID,23.9566,VALID,36,VALID,0,
2011-06-20, 03:10:04,VALID,1002.87,VALID,0,INVALID,163.754,VALID,0,VALID,23.9159,VALID,36,VALID,0,
2011-06-20, 03:11:04,VALID,1002.87,VALID,0,INVALID,163.762,VALID,0,VALID,23.9353,VALID,36,VALID,0,
2011-06-20, 03:12:04,VALID,1002.87,VALID,0,INVALID,163.746,VALID,0,VALID,23.9159,VALID,36,VALID,0,
2011-06-20, 03:13:04,VALID,1002.86,VALID,0,INVALID,163.769,VALID,0,VALID,23.9177,VALID,36,VALID,0,
2011-06-20, 03:14:04,VALID,1002.87,VALID,0,INVALID,163.769,VALID,0,VALID,23.8982,VALID,36,VALID,0,
2011-06-20, 03:15:04,VALID,1002.87,VALID,0,INVALID,163.739,VALID,0.100563,VALID,23.8964,VALID,36,VALID,0,
2011-06-20, 03:16:04,VALID,1002.88,VALID,0,INVALID,163.739,VALID,0,VALID,23.8769,VALID,36,VALID,0,
2011-06-20, 03:17:04,VALID,1002.84,VALID,0,INVALID,163.754,VALID,0.100563,VALID,23.8751,VALID,36,VALID,0,
2011-06-20, 03:18:04,VALID,1002.84,VALID,0,INVALID,163.746,VALID,0,VALID,23.8769,VALID,36,VALID,0,
2011-06-20, 03:19:04,VALID,1002.85,VALID,0,INVALID,163.746,VALID,0.100563,VALID,23.8556,VALID,36,VALID,0,
2011-06-20, 03:20:04,VALID,1002.85,VALID,0,INVALID,163.769,VALID,0,VALID,23.8769,VALID,36,VALID,0,
2011-06-20, 03:21:04,VALID,1002.86,VALID,0,INVALID,163.769,VALID,0,VALID,23.8769,VALID,36,VALID,0,
2011-06-20, 03:22:04,VALID,1002.85,VALID,0,INVALID,163.746,VALID,0,VALID,23.9177,VALID,36,VALID,0,
2011-06-20, 03:23:04,VALID,1002.85,VALID,0,INVALID,163.754,VALID,0,VALID,23.8964,VALID,36,VALID,0,
2011-06-20, 03:24:04,VALID,1002.86,VALID,0,INVALID,163.762,VALID,0,VALID,23.8964,VALID,35,VALID,0,
2011-06-20, 03:25:04,VALID,1002.83,VALID,0,INVALID,163.769,VALID,0,VALID,23.8769,VALID,35,VALID,0,
2011-06-20, 03:26:04,VALID,1002.83,VALID,0,INVALID,163.746,VALID,0,VALID,23.8982,VALID,35,VALID,0,
2011-06-20, 03:27:04,VALID,1002.84,VALID,0,INVALID,163.762,VALID,0.100563,VALID,23.8769,VALID,35,VALID,0,
2011-06-20, 03:28:04,VALID,1002.83,VALID,0,INVALID,163.731,VALID,0,VALID,23.838,VALID,35,VALID,0,
2011-06-20, 03:29:04,VALID,1002.82,VALID,0,INVALID,163.769,VALID,0.100563,VALID,23.838,VALID,35,VALID,0,
2011-06-20, 03:30:04,VALID,1002.82,VALID,0,INVALID,163.769,VALID,0.100563,VALID,23.8167,VALID,35,VALID,0,
2011-06-20, 03:31:04,VALID,1002.8,VALID,0,INVALID,163.769,VALID,0,VALID,23.8575,VALID,35,VALID,0,
2011-06-20, 03:32:04,VALID,1002.8,VALID,0,INVALID,163.777,VALID,0,VALID,23.8362,VALID,35,VALID,0,
2011-06-20, 03:33:04,VALID,1002.78,VALID,0,INVALID,163.762,VALID,0,VALID,23.8593,VALID,35,VALID,0,
2011-06-20, 03:34:04,VALID,1002.76,VALID,0,INVALID,163.769,VALID,0.100563,VALID,23.8203,VALID,35,VALID,0,
2011-06-20, 03:35:04,VALID,1002.73,VALID,0,INVALID,163.754,VALID,0,VALID,23.8185,VALID,35,VALID,0,
2011-06-20, 03:36:04,VALID,1002.71,VALID,0,INVALID,163.739,VALID,0,VALID,23.8185,VALID,35,VALID,0,
2011-06-20, 03:37:04,VALID,1002.69,VALID,0,INVALID,163.754,VALID,0,VALID,23.7778,VALID,35,VALID,0,
2011-06-20, 03:38:04,VALID,1002.66,VALID,0,INVALID,163.754,VALID,0,VALID,23.7991,VALID,35,VALID,0,
2011-06-20, 03:39:04,VALID,1002.63,VALID,0,INVALID,163.754,VALID,0.100563,VALID,23.7601,VALID,35,VALID,0,
2011-06-20, 03:40:04,VALID,1002.59,VALID,0,INVALID,163.769,VALID,0,VALID,23.7796,VALID,35,VALID,0,
2011-06-20, 03:41:04,VALID,1002.6,VALID,0,INVALID,163.746,VALID,0,VALID,23.7796,VALID,35,VALID,0,
2011-06-20, 03:42:04,VALID,1002.59,VALID,0,INVALID,163.746,VALID,0,VALID,23.7778,VALID,35,VALID,0,
2011-06-20, 03:43:04,VALID,1002.6,VALID,0,INVALID,163.746,VALID,0,VALID,23.7796,VALID,35,VALID,0,
2011-06-20, 03:44:04,VALID,1002.6,VALID,0,INVALID,163.769,VALID,0,VALID,23.7796,VALID,35,VALID,0,
2011-06-20, 03:45:04,VALID,1002.62,VALID,0,INVALID,163.769,VALID,0.100563,VALID,23.7796,VALID,35,VALID,0,
2011-06-20, 03:46:04,VALID,1002.63,VALID,0,INVALID,163.762,VALID,0.100563,VALID,23.7389,VALID,35,VALID,0,
2011-06-20, 03:47:04,VALID,1002.66,VALID,0,INVALID,163.754,VALID,0,VALID,23.7212,VALID,35,VALID,0,
2011-06-20, 03:48:04,VALID,1002.69,VALID,0,INVALID,163.746,VALID,0,VALID,23.7425,VALID,35,VALID,0,
2011-06-20, 03:49:04,VALID,1002.71,VALID,0,INVALID,163.769,VALID,0,VALID,23.6787,VALID,35,VALID,0,
2011-06-20, 03:50:04,VALID,1002.69,VALID,0,INVALID,163.754,VALID,0,VALID,23.7212,VALID,29,VALID,0,